When you browse on this site, cookies collect data to enhance your experience and personalize the content and advertising you see.
Visit our Privacy Policy to learn more. By continuing to use the site, you agree to this use of cookies and data.
  • In Hungary
  • List of Countries
  • For 7 days
  • Water Temperature
  • Weather Map
  • News
  • Weather Widgets
  • user-avatar
    Login

    Hourly Weather Sankt Veit an der Glan

    Today, 30 March, Monday

    Time Temperature Precipitation Wind Pressure Humidity
    00:00 +5°C° 1.2 mm 0 mps 714 mmHg 95%
    01:00 +5°C° 1.2 mm 0 mps 715 mmHg 96%
    02:00 +5°C° 0.9 mm 1 mps 715 mmHg 96%
    03:00 +5°C° 0.9 mm 1 mps 715 mmHg 96%
    04:00 +4°C° 0.9 mm 1 mps 715 mmHg 95%
    05:00 +4°C° 0.7 mm 1 mps 715 mmHg 94%
    06:00 +4°C° 0.7 mm 1 mps 715 mmHg 93%
    07:00 +4°C° 0.7 mm 1 mps 716 mmHg 92%
    08:00 +4°C° 0.3 mm 1 mps 716 mmHg 89%
    09:00 +5°C° 0.3 mm 1 mps 716 mmHg 87%
    10:00 +6°C° 0.3 mm 1 mps 717 mmHg 84%
    11:00 +6°C° 0.4 mm 1 mps 716 mmHg 84%
    12:00 +6°C° 0.4 mm 1 mps 716 mmHg 83%
    13:00 +6°C° 0.4 mm 2 mps 716 mmHg 83%
    14:00 +5°C° 0.7 mm 2 mps 716 mmHg 84%
    15:00 +4°C° 0.7 mm 2 mps 716 mmHg 86%
    16:00 +4°C° 0.7 mm 2 mps 716 mmHg 88%
    17:00 +4°C° 0.5 mm 1 mps 716 mmHg 89%
    18:00 +3°C° 0.5 mm 1 mps 716 mmHg 90%
    19:00 +3°C° 0.5 mm 1 mps 717 mmHg 91%
    20:00 +2°C° 0.1 mm 1 mps 717 mmHg 91%
    21:00 +1°C° 0.1 mm 1 mps 718 mmHg 91%
    22:00 0°C° 0.1 mm 1 mps 718 mmHg 90%
    23:00 -1°C° 0 mm 1 mps 718 mmHg 89%

    Tomorrow, 31 March, Tuesday

    Time Temperature Precipitation Wind Pressure Humidity
    00:00 -2°C° 0 mm 1 mps 718 mmHg 87%
    01:00 -3°C° 0 mm 1 mps 718 mmHg 86%
    02:00 -3°C° 0 mm 1 mps 718 mmHg 85%
    03:00 -3°C° 0 mm 1 mps 718 mmHg 84%
    04:00 -3°C° 0 mm 1 mps 718 mmHg 83%
    05:00 -3°C° 0 mm 1 mps 718 mmHg 80%
    06:00 -2°C° 0 mm 1 mps 718 mmHg 77%
    07:00 -1°C° 0 mm 1 mps 719 mmHg 75%
    08:00 +1°C° 0 mm 1 mps 719 mmHg 66%
    09:00 +3°C° 0 mm 1 mps 719 mmHg 58%
    10:00 +6°C° 0 mm 1 mps 719 mmHg 50%
    11:00 +6°C° 0 mm 1 mps 718 mmHg 50%
    12:00 +7°C° 0 mm 1 mps 718 mmHg 49%
    13:00 +8°C° 0 mm 1 mps 718 mmHg 49%
    14:00 +7°C° 0.2 mm 1 mps 718 mmHg 52%
    15:00 +6°C° 0.2 mm 1 mps 717 mmHg 55%
    16:00 +6°C° 0.2 mm 1 mps 717 mmHg 58%
    17:00 +4°C° 0.1 mm 1 mps 717 mmHg 65%
    18:00 +2°C° 0.1 mm 1 mps 718 mmHg 73%
    19:00 +1°C° 0.1 mm 1 mps 718 mmHg 80%
    20:00 +1°C° 0 mm 1 mps 719 mmHg 82%
    21:00 +1°C° 0 mm 1 mps 719 mmHg 84%
    22:00 0°C° 0 mm 1 mps 720 mmHg 86%
    23:00 0°C° 0.1 mm 1 mps 720 mmHg 89%

    Day after tomorrow, 1 April, Wednesday

    Time Temperature Precipitation Wind Pressure Humidity
    00:00 0°C° 0.1 mm 1 mps 720 mmHg 91%
    01:00 -1°C° 0.1 mm 1 mps 720 mmHg 94%
    02:00 -2°C° 0.1 mm 0 mps 719 mmHg 93%
    03:00 -3°C° 0.1 mm 0 mps 719 mmHg 92%
    04:00 -3°C° 0.1 mm 0 mps 719 mmHg 91%
    05:00 -2°C° 0 mm 0 mps 719 mmHg 87%
    06:00 -2°C° 0 mm 0 mps 719 mmHg 84%
    07:00 -1°C° 0 mm 0 mps 719 mmHg 80%
    08:00 +1°C° 0 mm 0 mps 718 mmHg 73%
    09:00 +3°C° 0 mm 0 mps 718 mmHg 66%
    10:00 +6°C° 0 mm 1 mps 718 mmHg 58%
    11:00 +7°C° 0 mm 1 mps 717 mmHg 56%
    12:00 +8°C° 0 mm 1 mps 717 mmHg 54%
    13:00 +9°C° 0 mm 1 mps 717 mmHg 52%
    14:00 +8°C° 0 mm 1 mps 716 mmHg 53%
    15:00 +8°C° 0 mm 1 mps 716 mmHg 55%
    16:00 +8°C° 0 mm 1 mps 715 mmHg 56%
    17:00 +6°C° 0 mm 1 mps 715 mmHg 64%
    18:00 +4°C° 0 mm 1 mps 715 mmHg 73%
    19:00 +1°C° 0 mm 0 mps 715 mmHg 82%
    20:00 0°C° 0 mm 0 mps 715 mmHg 82%
    21:00 0°C° 0 mm 0 mps 715 mmHg 83%
    22:00 0°C° 0 mm 0 mps 715 mmHg 83%
    23:00 -1°C° 0 mm 0 mps 715 mmHg 84%

    2 April, Thursday

    Time Temperature Precipitation Wind Pressure Humidity
    00:00 -1°C° 0 mm 0 mps 715 mmHg 85%
    01:00 -1°C° 0 mm 0 mps 714 mmHg 85%
    02:00 -1°C° 0 mm 0 mps 714 mmHg 86%
    03:00 -1°C° 0 mm 0 mps 714 mmHg 86%
    04:00 -1°C° 0 mm 0 mps 713 mmHg 87%
    05:00 0°C° 0 mm 0 mps 713 mmHg 83%
    06:00 +1°C° 0 mm 0 mps 714 mmHg 80%
    07:00 +1°C° 0 mm 0 mps 714 mmHg 76%
    08:00 +4°C° 0 mm 0 mps 714 mmHg 69%
    09:00 +7°C° 0 mm 0 mps 714 mmHg 62%
    10:00 +9°C° 0 mm 0 mps 713 mmHg 55%
    11:00 +11°C° 0 mm 1 mps 713 mmHg 54%
    12:00 +12°C° 0 mm 1 mps 713 mmHg 52%
    13:00 +13°C° 0 mm 1 mps 713 mmHg 51%
    14:00 +12°C° 0 mm 1 mps 712 mmHg 53%
    15:00 +12°C° 0 mm 1 mps 712 mmHg 54%
    16:00 +12°C° 0 mm 1 mps 711 mmHg 55%
    17:00 +9°C° 0 mm 1 mps 711 mmHg 65%
    18:00 +7°C° 0 mm 1 mps 711 mmHg 74%
    19:00 +4°C° 0 mm 0 mps 711 mmHg 83%
    20:00 +3°C° 0 mm 0 mps 711 mmHg 84%
    21:00 +3°C° 0 mm 0 mps 711 mmHg 85%
    22:00 +3°C° 0 mm 1 mps 712 mmHg 86%
    23:00 +3°C° 0 mm 1 mps 712 mmHg 87%

    3 April, Friday

    Time Temperature Precipitation Wind Pressure Humidity
    00:00 +3°C° 0 mm 1 mps 711 mmHg 88%
    01:00 +2°C° 0 mm 1 mps 711 mmHg 89%
    02:00 +2°C° 0 mm 1 mps 711 mmHg 89%
    03:00 +2°C° 0 mm 1 mps 711 mmHg 89%
    04:00 +2°C° 0 mm 1 mps 711 mmHg 89%
    05:00 +2°C° 0 mm 0 mps 711 mmHg 86%
    06:00 +3°C° 0 mm 0 mps 712 mmHg 82%
    07:00 +3°C° 0 mm 0 mps 712 mmHg 79%
    08:00 +6°C° 0 mm 0 mps 712 mmHg 72%
    09:00 +9°C° 0 mm 0 mps 712 mmHg 65%
    10:00 +12°C° 0 mm 0 mps 713 mmHg 58%
    11:00 +13°C° 0 mm 1 mps 713 mmHg 56%
    12:00 +14°C° 0 mm 1 mps 713 mmHg 53%
    13:00 +15°C° 0 mm 1 mps 713 mmHg 51%
    14:00 +15°C° 0.1 mm 1 mps 713 mmHg 54%
    15:00 +14°C° 0.1 mm 1 mps 713 mmHg 56%
    16:00 +14°C° 0.1 mm 1 mps 713 mmHg 58%
    17:00 +11°C° 0.1 mm 1 mps 713 mmHg 67%
    18:00 +9°C° 0.1 mm 1 mps 714 mmHg 75%
    19:00 +7°C° 0.1 mm 1 mps 714 mmHg 84%
    20:00 +7°C° 0 mm 1 mps 715 mmHg 85%
    21:00 +6°C° 0 mm 1 mps 715 mmHg 85%
    22:00 +6°C° 0 mm 1 mps 716 mmHg 86%
    23:00 +6°C° 0 mm 1 mps 717 mmHg 87%

    4 April, Saturday

    Time Temperature Precipitation Wind Pressure Humidity
    00:00 +5°C° 0 mm 1 mps 717 mmHg 87%
    01:00 +5°C° 0 mm 1 mps 717 mmHg 88%
    02:00 +5°C° 0 mm 1 mps 718 mmHg 89%
    03:00 +5°C° 0 mm 1 mps 718 mmHg 89%
    04:00 +5°C° 0 mm 1 mps 718 mmHg 90%
    05:00 +4°C° 0.1 mm 0 mps 719 mmHg 88%
    06:00 +4°C° 0.1 mm 0 mps 719 mmHg 87%
    07:00 +5°C° 0.1 mm 0 mps 720 mmHg 86%
    08:00 +6°C° 0 mm 0 mps 720 mmHg 85%
    09:00 +7°C° 0 mm 1 mps 720 mmHg 85%
    10:00 +8°C° 0 mm 1 mps 721 mmHg 85%
    11:00 +9°C° 0.1 mm 1 mps 721 mmHg 81%
    12:00 +10°C° 0.1 mm 1 mps 721 mmHg 78%
    13:00 +10°C° 0.1 mm 1 mps 721 mmHg 74%
    14:00 +10°C° 0.1 mm 1 mps 721 mmHg 74%
    15:00 +10°C° 0.1 mm 1 mps 721 mmHg 75%
    16:00 +10°C° 0.1 mm 1 mps 720 mmHg 75%
    17:00 +9°C° 0 mm 1 mps 721 mmHg 80%
    18:00 +8°C° 0 mm 1 mps 721 mmHg 85%
    19:00 +7°C° 0 mm 1 mps 721 mmHg 90%
    20:00 +6°C° 0 mm 1 mps 722 mmHg 91%
    21:00 +6°C° 0 mm 1 mps 722 mmHg 91%
    22:00 +5°C° 0 mm 1 mps 723 mmHg 92%
    23:00 +5°C° 0 mm 1 mps 723 mmHg 92%
    Show more